Flag for U.S.A. Weather past 2 weeks in Akron, Ohio, U.S.A.

Now
67 °F

Light rain. More clouds than sun.


Feels Like: 67 °F
Forecast: 62 / 74 °F
Wind: 10 mph from Southwest

Location: Akron Fulton International Airport

Current Time: Jun 30, 2015 at 5:50:30 PM

Latest Report: Jun 30, 2015 at 4:54 PM


Visibility: 9 mi

Pressure: 29.77 "Hg

Humidity: 87%

Dew point: 63 °F

Location of AkronLocation

Historic Weather in Akron — Graph

°F

Akron temperature yesterday

Maximum temperature yesterday: 70 °F (at 11:54 AM)
Minimum temperature yesterday: 58 °F (at 12:54 AM)
Average temperature yesterday: 64 °F

Past Weeks' High & Low Weather Summary

 TemperatureHumidityPressure
High86 °F (Jun 15, 4:54 PM)93% (Jun 18, 10:54 PM)30.14 "Hg (Jun 18, 10:54 PM)
Low58 °F (Jun 29, 12:54 AM)40% (Jun 23, 3:54 PM)29.57 "Hg (Jun 28, 1:54 AM)
Average71 °F75%29.93 "Hg
* Reported Jun 15 4:54 PM — Jun 30 4:03 PM, Akron, Weather by CustomWeather, © 2015

Note: Actual official high and low records may vary slightly from our data, if they occured in-between our weather recording intervals... More about our weather records

Advertising

Akron weather history for previous 24 hours

 ConditionsComfort  
Time TempWeatherWind HumidityBarometerVisibility
4:03 PM
Tue, Jun 30
66 °FStrong thunderstorms. Fog.14 mph87%29.81 "Hg0 mi
4:00 PM66 °FThunderstorms. Mostly cloudy.24 mph84%29.82 "Hg1 mi
2:54 PM76 °FScattered clouds.10 mph60%29.76 "Hg10 mi
1:54 PM77 °FPassing clouds.8 mph62%29.78 "Hg10 mi
12:54 PM76 °FScattered clouds.12 mph64%29.81 "Hg10 mi
11:54 AM73 °FCloudy.9 mph71%29.82 "Hg10 mi
10:54 AM70 °FMostly cloudy.7 mph76%29.83 "HgN/A
9:54 AM68 °FScattered clouds.13 mph76%29.83 "HgN/A
8:54 AM67 °FScattered clouds.7 mph81%29.82 "HgN/A
7:54 AM65 °FPartly sunny.8 mph87%29.83 "HgN/A
6:54 AM65 °FPartly cloudy.7 mph91%29.81 "HgN/A
5:54 AM65 °FLow clouds.7 mph91%29.80 "HgN/A
4:54 AM64 °FLow clouds.5 mph90%29.79 "HgN/A
3:54 AM64 °FLow clouds.No wind90%29.79 "HgN/A
2:54 AM63 °FMostly cloudy.No wind93%29.79 "HgN/A
1:54 AM64 °FMostly cloudy.No wind87%29.80 "Hg10 mi
12:54 AM64 °FMostly cloudy.No wind84%29.81 "Hg10 mi
11:54 PM
Mon, Jun 29
63 °FPartly cloudy.No wind87%29.83 "Hg10 mi
10:54 PM64 °FMostly cloudy.3 mph84%29.83 "Hg10 mi
9:54 PM64 °FMostly cloudy.3 mph87%29.83 "Hg10 mi
8:54 PM64 °FOvercast.6 mph87%29.83 "Hg10 mi
7:54 PM64 °FOvercast.5 mph84%29.85 "Hg10 mi
6:54 PM64 °FRain. Fog.5 mph87%29.87 "Hg2 mi
5:54 PM65 °FOvercast.No wind85%29.88 "Hg10 mi
Weather by CustomWeather, © 2015

See weather overviewHow to use our weather pages